Road Running Flyers for Upcoming Events Advertising Contact Us Race Calendar Home
MiFitLife

Complete results

Results for the Deloitte Pretoria (AGN) 10km race - 2015-03-01

2512 finishers

Position Initials Surname Sex Age Club Finish Time
1PMasheleM25Transnet00:29:52
2SSegoabaM31Transnet00:29:56
3JGwebuM34Nedbank00:30:28
4SHoffM41Samancor00:31:47
5MMotoneM34Transnet00:31:58
6KMelamuM18Randmark00:32:02
7TMositoM20Tuks00:32:44
8MNkabendeM25Temp00:32:52
9TTshiteM18Sedibelo00:33:16
10IPhalaM24Sedibelo00:33:19
11OMasireM32Driefontein00:33:33
12SLefalakalaM26Ikhozi00:34:52
13FMogashoaM29Wingate00:34:55
14BMotauM34Exxaro00:34:59
15JMgcinaM39Sports Connection00:35:21
16RNyahoraF26Nedbank00:35:22
17NMotimediM19Addicted To Life00:35:32
18BMtsweniM19Temp00:35:33
19RNdlovuM52Randburg Harriers00:35:33
20KShipalanaF28Transnet00:35:36
21AMoneneM19Addicted To Life00:35:38
22MSesingM34Randmark00:35:43
23KSesingF26Randmark00:35:43
24DMahlanguM23Anglo00:35:46
25JMthombeniM22Anglo00:35:49
26UnknownM00:35:51
27SMncubeM20Temp00:35:54
28MPhamlaM38Acsa00:35:59
29UnknownM00:36:19
30PNgwenyaF27Transnet00:36:21
31GXabaF21Sasol00:36:26
32PO'nealM20Ace00:36:27
33LMaphangaM52Anglo00:36:47
34JMaqhaliM34Sibanye Gold00:37:01
35VMatlhamelaM28Exxaro00:37:02
36UnknownM5900:37:02
37Unknown00:37:08
38MWilsonM30Temp00:37:09
39PZwaneF40Transnet00:37:10
40QV ZylM29Roodepoort00:37:27
41CCherryM28Kudus00:37:32
42MRetiefF29Boxer00:37:40
43DGwangwaM43Global00:37:40
44TPhuluM55Panorama00:37:56
45TGodiramamangM22Pmmc00:38:09
46NMtsweni53Ikhaya00:38:11
47MOdirileM18Sedibelo00:38:21
48MSeomaneM42Eskom00:38:21
49FMollelF22Nedbank00:38:22
50DMazibukuM40Beefcor00:38:29
51MJansenM24Temp00:38:39
52NNgonyamaM32Temp00:38:42
53Unknown00:39:01
54MJoubetM23Tuks00:39:12
55TNdhlovuM45Ford00:39:18
56DDe VilliersM49Wingate00:39:27
57SRasebolsaM20Addicted To Life00:39:27
58JMokepereF28Nedbank00:39:31
59AMokgotlaF25Nedbank00:39:32
60YGebeF23Temp00:39:48
61ARamoshelaM34Solidariteit00:39:49
62JAdamsM15Ace00:39:58
63LMabienM15Ace00:39:58
64LDiutlwilengM21Temp00:40:02
65JJoubertM27Centak00:40:05
66BNtamehloM33Travel With Flair00:40:10
67MRamoshetaM52Temp00:40:13
68JVd WaalsF40Irene00:40:15
69MAkakpM25Kapcity00:40:21
70IFourieM21Transnet00:40:26
71RMphahleleM20Atteridgeville00:40:36
72MMawandeM28Tumela00:40:58
73JMatjiaMAddicted To Life00:40:58
74LSkosanaM36Temp00:40:59
75SManyeloM37Vitality00:41:05
76AHabediM33Rwfl Rustenburg00:41:06
77GMollerM31Temp00:41:08
78SReitumetseM15Sedibelo00:41:24
79MOnkgopodseM17Sedibelo00:41:25
80HMareM37Tuks00:41:26
81BMabaleM55Midrand Striders00:41:27
82Unknown00:41:28
83JDiboduM40Temp00:41:30
84JRatselaM45Moretele00:41:33
85KKasureM23Kapcity00:41:38
86KamogeloM20Temp00:41:42
87RKaltebrunnF17Benoni High00:41:46
88Unknown00:41:47
89MCopeF26Temp00:42:30
90VusiM42Vyebo Striders00:42:33
91MSimonaM35Tumela00:43:09
92LPaileM15Temp00:43:09
93ASignorelliM15Running Inn00:43:10
94MQoyiM32Tumela00:43:12
95OLabuschagneF19Wonderboom00:43:15
96GJ V RensburgM33Temp00:43:16
97MMogabaM35Temp00:43:23
98MMnyaziM32Pmmc00:43:24
99MokwatjariaM31Sars00:43:26
100AMphaliF27Sibanye Gold00:43:29
101AFerriM56Nedbank00:43:37
102LizaF35Irene00:43:45
103GSwiftM53Nedbank00:44:01
104LMhlongoF43Eskom00:44:01
105DDe JagerM28Temp00:44:05
106PLekweMTemp00:44:11
107AssalineF45Post Office00:44:16
108JDe BeerFAffies00:44:30
109TSetshedM65Temp00:44:34
110LModauM23Capital City00:44:34
111JBesterM20Temp00:44:35
112SMdhluiM44Post Office00:44:50
113SNthemuM36Drdlr00:44:51
114JSturdyF39Temp00:44:52
115CSturdyM40Temp00:44:55
116SLabuschagneF19Wonderboom00:44:56
117SSitholeM42Unisa00:44:57
118Unknown00:45:15
119CBohmeM38Temp00:45:22
120TBolhangerM32Temp00:45:23
121StephenM25Kapcity00:45:25
122PWieheM19Temp00:45:26
123JMonyafisiM36Tumela00:45:59
124KLeroyM25Temp00:46:16
125KNobazaM40Pmmc00:46:28
126WMohamonyaneM19Temp00:46:29
127JMohloboganeM33Run The Race00:46:30
128TMashilaM27Temp00:46:31
129JMatlhabaM27Amanzi00:46:31
130MVavaM27Tumela00:46:32
131TMagagulaM42City Of Tshwane00:46:33
132Unknown00:46:34
133SMabeneM36Magnolia00:46:47
134Unknown00:46:48
135VBothaM23Temp00:46:53
136Unknown00:46:54
137Unknown00:46:56
138TV NiekerkM44Temp00:47:00
139TSitholeM25Kapcity00:47:04
140LNelM27Magnolia00:47:08
141Unknown00:47:12
142TVolkerM24Temp00:47:20
143GVd MerweM27Aurecon00:47:21
144FMhlangaM23Temp00:47:22
145TModiseM30Doe00:47:26
146BinangM25Carlton00:47:27
147Unknown00:47:46
148ASfisoMTemp00:47:52
149JCopeM31Temp00:47:52
150BHammanM41Rwfl00:47:53
151JBiengerM65Rwfl00:47:55
152TMotaungM37Temp00:48:01
153Unknown00:48:01
154SMgwenuM23Addicted To Life00:48:02
155RHoltzhausenM28Npo00:48:07
156WMurrayTemp00:48:10
157JMufhadiM34Dirco00:48:11
158TPhaswanaM21Temp00:48:11
159EMalebeM48Temp00:48:16
160DDe KlerkM45Temp00:48:17
161NPuleM41Pilditch00:48:17
162WToerienM28Running Inn00:48:18
163TDe CastroM18Temp00:48:18
164Unknown00:48:19
165DFillietM59Pmmc00:48:22
166AMtsweniM29Temp00:48:25
167TStockenstromF21Rwfl00:48:25
168MGroblerM20Temp00:48:27
169SBrandtF24Bestmed00:48:28
170MNdounhadaM21Aurecon00:48:30
171EHarrisonM21Temp00:48:36
172DSteynM24Temp00:48:40
173AMafundaM15Temp00:48:41
174EBrudfieldF49Temp00:48:42
175TBriersM44Runavation00:48:44
176MBredellF15Magnolia00:48:57
177DLabuschagneM41Bestmed00:48:58
178NAdams21Temp00:48:59
179SMthembuM31Arcadia00:49:11
180RJoosteM15Temp00:49:12
181RVd MerweM22Temp00:49:17
182MZwedolaMA4a00:49:18
183DMhwanazM31Jma00:49:20
184MOberholzerM29Irene00:49:28
185DDe Villiers LouwM19Temp00:49:33
186LMoutonF27Running Inn00:49:37
187BradleyM30Temp00:49:40
188FRukemanM27Temp00:49:42
189VSiskaM34Love Running00:49:43
190JWebberM61Temp00:49:43
191ARamjewanM41Temp00:49:44
192DMilesM28Hqh00:49:45
193HeistichM23Temp00:49:45
194LMachekeleM26Temp00:49:58
195CLoubserM25Nedbank00:49:59
196OPienaarM23Temp00:50:00
197JDu ToitM25Temp00:50:00
198RMyburghM38Temp00:50:09
199PSzabolgM44Temp00:50:11
200Unknown00:50:15

Home | Next


Tips
The World\